IYE517 OEJN-OYAA

Flight info

Callsign IYE517
Flight time 1h 43m
Altitude 35000
Route RIBAM M559 LABNI M999 DANAK B413 RIBOK N303 PARIM P751 DIRAK
Aircraft A320/M-SDE3FGHIRWY/LB1

Departure

Time 2026-05-06 12:40
Airport King Abdulaziz International Airport (OEJN)

Arrival

Time 2026-05-06 14:23
Airport Aden International Airport (OYAA)
Time Latitude Longitude Altitude Speed Heading
2026-05-06 11:56 21.67646 39.14144 33 ft 0 kts 123°
2026-05-06 12:25 21.67657 39.14128 30 ft 4 kts 124°
2026-05-06 12:25 21.67672 39.14104 32 ft 4 kts 124°
2026-05-06 12:25 21.67687 39.14080 31 ft 4 kts 125°
2026-05-06 12:25 21.67703 39.14056 30 ft 4 kts 125°
2026-05-06 12:26 21.67718 39.14033 30 ft 2 kts 123°
2026-05-06 12:26 21.67731 39.14014 32 ft 4 kts 136°
2026-05-06 12:26 21.67752 39.13997 32 ft 4 kts 152°
2026-05-06 12:26 21.67776 39.13985 32 ft 3 kts 158°
2026-05-06 12:27 21.67779 39.13984 32 ft 0 kts 158°
2026-05-06 12:29 21.67768 39.13989 32 ft 4 kts 158°
2026-05-06 12:30 21.67729 39.14005 31 ft 8 kts 160°
2026-05-06 12:30 21.67664 39.14030 32 ft 12 kts 160°
2026-05-06 12:30 21.67578 39.14063 32 ft 14 kts 159°
2026-05-06 12:30 21.67481 39.14104 32 ft 16 kts 160°
2026-05-06 12:31 21.67372 39.14145 32 ft 17 kts 160°
2026-05-06 12:31 21.67257 39.14191 32 ft 18 kts 160°
2026-05-06 12:31 21.67173 39.14248 32 ft 12 kts 92°
2026-05-06 12:31 21.67204 39.14340 31 ft 14 kts 70°
2026-05-06 12:32 21.67240 39.14448 32 ft 17 kts 70°
2026-05-06 12:32 21.67282 39.14573 32 ft 19 kts 70°
2026-05-06 12:32 21.67330 39.14714 32 ft 21 kts 70°
2026-05-06 12:32 21.67382 39.14864 32 ft 22 kts 69°
2026-05-06 12:33 21.67418 39.14969 31 ft 23 kts 70°
2026-05-06 12:33 21.67475 39.15134 32 ft 24 kts 70°
2026-05-06 12:33 21.67535 39.15307 30 ft 25 kts 70°
2026-05-06 12:33 21.67598 39.15486 32 ft 26 kts 68°
2026-05-06 12:34 21.67628 39.15676 33 ft 16 kts 133°
2026-05-06 12:34 21.67557 39.15711 33 ft 18 kts 161°
2026-05-06 12:34 21.67430 39.15759 33 ft 21 kts 160°
2026-05-06 12:34 21.67282 39.15819 33 ft 24 kts 159°
2026-05-06 12:35 21.67116 39.15884 33 ft 27 kts 160°
2026-05-06 12:35 21.66950 39.15951 33 ft 19 kts 159°
2026-05-06 12:35 21.66835 39.15996 33 ft 18 kts 160°
2026-05-06 12:35 21.66702 39.16049 33 ft 23 kts 159°
2026-05-06 12:36 21.66540 39.16112 33 ft 27 kts 160°
2026-05-06 12:36 21.66357 39.16182 33 ft 28 kts 159°
2026-05-06 12:36 21.66232 39.16235 33 ft 16 kts 158°
2026-05-06 12:36 21.66185 39.16304 33 ft 11 kts 75°
2026-05-06 12:37 21.66190 39.16317 33 ft 0 kts 69°
2026-05-06 12:38 21.66190 39.16318 33 ft 1 kts 69°
2026-05-06 12:38 21.66202 39.16352 33 ft 9 kts 70°
2026-05-06 12:38 21.66232 39.16432 32 ft 9 kts 49°
2026-05-06 12:38 21.66266 39.16429 33 ft 0 kts 340°
2026-05-06 12:39 21.66344 39.16399 34 ft 40 kts 340°
2026-05-06 12:39 21.66804 39.16218 36 ft 97 kts 340°
2026-05-06 12:39 21.67582 39.15913 34 ft 140 kts 340°
2026-05-06 12:39 21.68550 39.15530 358 ft 150 kts 342°
2026-05-06 12:40 21.69533 39.15137 808 ft 152 kts 340°
2026-05-06 12:40 21.70532 39.14747 1336 ft 154 kts 338°
2026-05-06 12:40 21.71556 39.14331 1794 ft 161 kts 340°
2026-05-06 12:40 21.72683 39.13883 1978 ft 184 kts 341°
2026-05-06 12:41 21.73957 39.13384 2151 ft 206 kts 340°
2026-05-06 12:41 21.75262 39.12570 2404 ft 232 kts 315°
2026-05-06 12:41 21.75996 39.10936 2747 ft 260 kts 278°
2026-05-06 12:41 21.75653 39.08995 3264 ft 274 kts 241°
2026-05-06 12:42 21.74299 39.07564 3935 ft 279 kts 206°
2026-05-06 12:42 21.72422 39.07074 4702 ft 279 kts 182°
2026-05-06 12:42 21.70483 39.07136 5468 ft 279 kts 174°
2026-05-06 12:42 21.68552 39.07375 6205 ft 280 kts 172°
2026-05-06 12:43 21.66617 39.07622 6909 ft 280 kts 174°
2026-05-06 12:43 21.64680 39.07815 7645 ft 279 kts 175°
2026-05-06 12:43 21.62762 39.07948 8360 ft 280 kts 178°
2026-05-06 12:43 21.60816 39.08035 9098 ft 280 kts 179°
2026-05-06 12:44 21.58866 39.08094 9821 ft 281 kts 180°
2026-05-06 12:44 21.56898 39.08135 10314 ft 290 kts 180°
2026-05-06 12:44 21.54809 39.08168 10424 ft 310 kts 180°
2026-05-06 12:44 21.52586 39.08201 10558 ft 329 kts 180°
2026-05-06 12:45 21.50230 39.08238 10677 ft 347 kts 180°
2026-05-06 12:45 21.47759 39.08285 10913 ft 359 kts 180°
2026-05-06 12:45 21.42708 39.08388 11919 ft 366 kts 180°
2026-05-06 12:46 21.40149 39.08439 12450 ft 369 kts 180°
2026-05-06 12:46 21.37572 39.08491 13000 ft 372 kts 181°
2026-05-06 12:46 21.34973 39.08540 13553 ft 375 kts 181°
2026-05-06 12:46 21.32353 39.08587 14064 ft 377 kts 181°
2026-05-06 12:47 21.29752 39.08633 14568 ft 380 kts 181°
2026-05-06 12:47 21.27102 39.08679 15088 ft 382 kts 181°
2026-05-06 12:47 21.24434 39.08728 15610 ft 384 kts 181°
2026-05-06 12:47 21.21747 39.08781 16111 ft 387 kts 181°
2026-05-06 12:48 21.19038 39.08835 16645 ft 390 kts 181°
2026-05-06 12:48 21.16316 39.08889 17176 ft 392 kts 181°
2026-05-06 12:48 21.13573 39.08944 17704 ft 395 kts 181°
2026-05-06 12:48 21.10817 39.08997 18209 ft 398 kts 181°
2026-05-06 12:49 21.08036 39.09047 18641 ft 401 kts 181°
2026-05-06 12:49 21.05238 39.09099 19068 ft 404 kts 181°
2026-05-06 12:49 21.02417 39.09153 19468 ft 407 kts 181°
2026-05-06 12:49 20.99609 39.09208 19858 ft 410 kts 181°
2026-05-06 12:50 20.96744 39.09264 20262 ft 413 kts 181°
2026-05-06 12:50 20.93867 39.09320 20634 ft 416 kts 182°
2026-05-06 12:50 20.90962 39.09377 20991 ft 419 kts 182°
2026-05-06 12:50 20.88037 39.09434 21343 ft 422 kts 182°
2026-05-06 12:51 20.85083 39.09490 21679 ft 424 kts 182°
2026-05-06 12:51 20.82127 39.09542 22016 ft 427 kts 182°
2026-05-06 12:51 20.79144 39.09596 22331 ft 429 kts 182°
2026-05-06 12:51 20.76142 39.09650 22645 ft 432 kts 182°
2026-05-06 12:52 20.73123 39.09736 22934 ft 436 kts 179°
2026-05-06 12:52 20.70146 39.10249 23227 ft 443 kts 169°
2026-05-06 12:52 20.67213 39.11326 23494 ft 449 kts 161°
2026-05-06 12:52 20.64315 39.12604 23742 ft 451 kts 161°
2026-05-06 12:53 20.61406 39.13881 23975 ft 453 kts 162°
2026-05-06 12:53 20.58489 39.15155 24219 ft 454 kts 162°
2026-05-06 12:53 20.55556 39.16430 24453 ft 456 kts 162°
2026-05-06 12:53 20.52614 39.17709 24700 ft 457 kts 162°
2026-05-06 12:54 20.49663 39.18992 24956 ft 458 kts 162°
2026-05-06 12:54 20.46714 39.20274 25304 ft 457 kts 162°
2026-05-06 12:54 20.43771 39.21551 25670 ft 455 kts 162°
2026-05-06 12:54 20.40839 39.22824 26022 ft 455 kts 162°
2026-05-06 12:55 20.37912 39.24097 26376 ft 454 kts 162°
2026-05-06 12:55 20.34993 39.25369 26728 ft 453 kts 162°
2026-05-06 12:55 20.32076 39.26636 27085 ft 452 kts 162°
2026-05-06 12:55 20.29160 39.27897 27446 ft 452 kts 162°
2026-05-06 12:56 20.26250 39.29155 27814 ft 451 kts 163°
2026-05-06 12:56 20.23350 39.30410 28188 ft 450 kts 163°
2026-05-06 12:56 20.20443 39.31667 28574 ft 449 kts 163°
2026-05-06 12:56 20.17553 39.32919 28960 ft 449 kts 163°
2026-05-06 12:57 20.14698 39.34158 29338 ft 448 kts 163°
2026-05-06 12:57 20.11803 39.35412 29741 ft 447 kts 163°
2026-05-06 12:57 20.08928 39.36654 30097 ft 446 kts 163°
2026-05-06 12:57 20.06057 39.37895 30441 ft 445 kts 163°
2026-05-06 12:58 20.03197 39.39133 30804 ft 443 kts 163°
2026-05-06 12:58 20.00338 39.40370 31167 ft 442 kts 163°
2026-05-06 12:58 19.97495 39.41596 31537 ft 440 kts 163°
2026-05-06 12:58 19.94651 39.42825 31922 ft 438 kts 163°
2026-05-06 12:59 19.91864 39.44028 32294 ft 437 kts 163°
2026-05-06 12:59 19.89057 39.45240 32676 ft 435 kts 163°
2026-05-06 12:59 19.86258 39.46446 33054 ft 434 kts 163°
2026-05-06 12:59 19.83464 39.47647 33439 ft 432 kts 163°
2026-05-06 13:00 19.80681 39.48842 33796 ft 430 kts 163°
2026-05-06 13:00 19.77911 39.50037 34096 ft 429 kts 163°
2026-05-06 13:00 19.75141 39.51234 34357 ft 429 kts 163°
2026-05-06 13:00 19.72381 39.52426 34602 ft 429 kts 163°
2026-05-06 13:01 19.69609 39.53620 34787 ft 430 kts 163°
2026-05-06 13:01 19.64004 39.56022 34817 ft 441 kts 163°
2026-05-06 13:02 19.58246 39.58493 34814 ft 449 kts 163°
2026-05-06 13:02 19.52463 39.60978 34817 ft 451 kts 163°
2026-05-06 13:03 19.46648 39.63478 34816 ft 451 kts 163°
2026-05-06 13:03 19.40829 39.65978 34816 ft 451 kts 163°
2026-05-06 13:04 19.35004 39.68472 34815 ft 451 kts 163°
2026-05-06 13:04 19.29198 39.70958 34815 ft 452 kts 162°
2026-05-06 13:05 19.23346 39.73462 34808 ft 452 kts 162°
2026-05-06 13:05 19.17508 39.75954 34811 ft 453 kts 162°
2026-05-06 13:06 19.11659 39.78447 34809 ft 453 kts 162°
2026-05-06 13:06 19.05806 39.80940 34813 ft 453 kts 162°
2026-05-06 13:07 18.99954 39.83437 34808 ft 454 kts 162°
2026-05-06 13:07 18.94140 39.85918 34810 ft 454 kts 162°
2026-05-06 13:08 18.88276 39.88415 34813 ft 454 kts 162°
2026-05-06 13:08 18.82413 39.90915 34811 ft 455 kts 162°
2026-05-06 13:09 18.76544 39.93415 34812 ft 455 kts 162°
2026-05-06 13:09 18.70665 39.95914 34816 ft 455 kts 162°
2026-05-06 13:10 18.64828 39.98390 34816 ft 455 kts 162°
2026-05-06 13:10 18.58947 40.00883 34816 ft 456 kts 162°
2026-05-06 13:11 18.53057 40.03378 34818 ft 456 kts 162°
2026-05-06 13:11 18.47167 40.05876 34820 ft 456 kts 162°
2026-05-06 13:12 18.41272 40.08373 34819 ft 457 kts 162°
2026-05-06 13:12 18.35370 40.10863 34821 ft 457 kts 162°
2026-05-06 13:13 18.29466 40.13356 34822 ft 457 kts 161°
2026-05-06 13:13 18.23567 40.15849 34821 ft 457 kts 162°
2026-05-06 13:14 18.17657 40.18345 34818 ft 458 kts 161°
2026-05-06 13:14 18.11737 40.20844 34821 ft 458 kts 161°
2026-05-06 13:15 18.05852 40.23327 34825 ft 458 kts 161°
2026-05-06 13:15 17.99940 40.25818 34823 ft 458 kts 161°
2026-05-06 13:16 17.94017 40.28309 34824 ft 458 kts 161°
2026-05-06 13:16 17.88104 40.30791 34822 ft 458 kts 161°
2026-05-06 13:17 17.82191 40.33274 34820 ft 457 kts 161°
2026-05-06 13:17 17.76281 40.35756 34817 ft 458 kts 161°
2026-05-06 13:18 17.70373 40.38236 34818 ft 458 kts 161°
2026-05-06 13:18 17.64487 40.40700 34817 ft 458 kts 161°
2026-05-06 13:19 17.58572 40.43174 34818 ft 458 kts 161°
2026-05-06 13:19 17.52645 40.45652 34816 ft 458 kts 161°
2026-05-06 13:20 17.46727 40.48126 34818 ft 458 kts 161°
2026-05-06 13:20 17.40801 40.50605 34820 ft 459 kts 161°
2026-05-06 13:21 17.35026 40.53473 34822 ft 463 kts 148°
2026-05-06 13:21 17.30383 40.58108 34813 ft 470 kts 128°
2026-05-06 13:22 17.26737 40.63808 34810 ft 471 kts 126°
2026-05-06 13:22 17.23120 40.69528 34809 ft 472 kts 126°
2026-05-06 13:23 17.19500 40.75253 34818 ft 472 kts 126°
2026-05-06 13:23 17.15868 40.80979 34817 ft 472 kts 126°
2026-05-06 13:24 17.12241 40.86703 34817 ft 472 kts 126°
2026-05-06 13:24 17.08612 40.92427 34813 ft 472 kts 126°
2026-05-06 13:25 17.05007 40.98101 34817 ft 471 kts 126°
2026-05-06 13:25 17.01376 41.03810 34815 ft 471 kts 126°
2026-05-06 13:26 16.98359 41.08548 34812 ft 471 kts 126°
2026-05-06 13:26 16.94319 41.13876 34812 ft 466 kts 140°
2026-05-06 13:27 16.88927 41.17577 34802 ft 460 kts 159°
2026-05-06 13:27 16.83006 41.20007 34798 ft 460 kts 161°
2026-05-06 13:28 16.77046 41.22441 34793 ft 460 kts 160°
2026-05-06 13:28 16.71078 41.24884 34792 ft 461 kts 160°
2026-05-06 13:29 16.65098 41.27323 34791 ft 462 kts 160°
2026-05-06 13:29 16.59111 41.29756 34796 ft 462 kts 160°
2026-05-06 13:30 16.53159 41.32173 34801 ft 463 kts 160°
2026-05-06 13:30 16.47161 41.34613 34804 ft 463 kts 160°
2026-05-06 13:31 16.41156 41.37053 34808 ft 463 kts 160°
2026-05-06 13:31 16.35149 41.39486 34809 ft 463 kts 160°
2026-05-06 13:32 16.29136 41.41925 34811 ft 463 kts 160°
2026-05-06 13:32 16.23129 41.44359 34811 ft 463 kts 160°
2026-05-06 13:33 16.17122 41.46801 34811 ft 464 kts 158°
2026-05-06 13:33 16.11655 41.50375 34803 ft 468 kts 139°
2026-05-06 13:34 16.07156 41.55281 34804 ft 469 kts 134°
2026-05-06 13:34 16.02736 41.60222 34803 ft 470 kts 135°
2026-05-06 13:35 15.98274 41.65202 34802 ft 471 kts 135°
2026-05-06 13:35 15.93816 41.70193 34806 ft 471 kts 134°
2026-05-06 13:36 15.89351 41.75192 34803 ft 472 kts 134°
2026-05-06 13:36 15.84884 41.80184 34807 ft 472 kts 134°
2026-05-06 13:37 15.80396 41.85166 34802 ft 472 kts 137°
2026-05-06 13:37 15.75100 41.89098 34805 ft 467 kts 156°
2026-05-06 13:38 15.69235 41.91991 34802 ft 467 kts 156°
2026-05-06 13:38 15.63408 41.94875 34802 ft 467 kts 156°
2026-05-06 13:39 15.57543 41.97776 34803 ft 467 kts 156°
2026-05-06 13:39 15.51685 42.00673 34793 ft 466 kts 156°
2026-05-06 13:40 15.45824 42.03569 34796 ft 466 kts 156°
2026-05-06 13:40 15.39964 42.06464 34792 ft 466 kts 156°
2026-05-06 13:41 15.34093 42.09356 34794 ft 467 kts 156°
2026-05-06 13:41 15.28266 42.12229 34795 ft 466 kts 156°
2026-05-06 13:42 15.22397 42.15119 34797 ft 467 kts 156°
2026-05-06 13:42 15.16522 42.18012 34801 ft 467 kts 156°
2026-05-06 13:43 15.10652 42.20897 34801 ft 467 kts 156°
2026-05-06 13:43 15.04775 42.23782 34800 ft 467 kts 156°
2026-05-06 13:44 14.98940 42.26646 34804 ft 467 kts 156°
2026-05-06 13:44 14.93051 42.29494 34802 ft 467 kts 156°
2026-05-06 13:45 14.87155 42.32325 34806 ft 467 kts 156°
2026-05-06 13:45 14.78330 42.36612 34800 ft 467 kts 156°
2026-05-06 13:46 14.72453 42.39494 34803 ft 467 kts 155°
2026-05-06 13:46 14.66569 42.42370 34805 ft 467 kts 156°
2026-05-06 13:47 14.60681 42.45239 34803 ft 467 kts 155°
2026-05-06 13:47 14.54829 42.48085 34800 ft 468 kts 155°
2026-05-06 13:48 14.48939 42.50950 34803 ft 468 kts 155°
2026-05-06 13:48 14.43044 42.53819 34801 ft 468 kts 155°
2026-05-06 13:49 14.37151 42.56688 34800 ft 469 kts 155°
2026-05-06 13:49 14.31245 42.59559 34805 ft 469 kts 155°
2026-05-06 13:50 14.25339 42.62428 34803 ft 469 kts 155°
2026-05-06 13:50 14.19432 42.65297 34801 ft 469 kts 155°
2026-05-06 13:51 14.13561 42.68154 34800 ft 469 kts 155°
2026-05-06 13:51 14.07651 42.71028 34806 ft 469 kts 155°
2026-05-06 13:52 14.01743 42.73896 34808 ft 470 kts 155°
2026-05-06 13:52 13.95830 42.76759 34809 ft 470 kts 155°
2026-05-06 13:53 13.89919 42.79633 34809 ft 469 kts 155°
2026-05-06 13:53 13.84003 42.82500 34810 ft 469 kts 155°
2026-05-06 13:54 13.78092 42.85365 34809 ft 469 kts 155°
2026-05-06 13:54 13.72174 42.88228 34809 ft 469 kts 155°
2026-05-06 13:55 13.66299 42.91065 34805 ft 469 kts 155°
2026-05-06 13:55 13.60393 42.93922 34809 ft 469 kts 155°
2026-05-06 13:56 13.54490 42.96776 34807 ft 469 kts 155°
2026-05-06 13:56 13.48592 42.99635 34805 ft 468 kts 155°
2026-05-06 13:57 13.42700 43.02487 34799 ft 468 kts 155°
2026-05-06 13:57 13.36794 43.05327 34799 ft 468 kts 155°
2026-05-06 13:58 13.30939 43.08143 34801 ft 468 kts 155°
2026-05-06 13:58 13.25050 43.10984 34799 ft 468 kts 155°
2026-05-06 13:59 13.19159 43.13825 34796 ft 467 kts 155°
2026-05-06 13:59 13.13269 43.16663 34796 ft 467 kts 155°
2026-05-06 14:00 13.07391 43.19499 34778 ft 465 kts 155°
2026-05-06 14:00 13.01523 43.22317 34772 ft 466 kts 155°
2026-05-06 14:01 12.95646 43.25143 34771 ft 466 kts 155°
2026-05-06 14:01 12.89819 43.27941 34771 ft 465 kts 155°
2026-05-06 14:02 12.83946 43.30752 34772 ft 466 kts 155°
2026-05-06 14:02 12.78082 43.33572 34776 ft 466 kts 155°
2026-05-06 14:03 12.72209 43.36394 34785 ft 466 kts 155°
2026-05-06 14:03 12.69275 43.37803 34639 ft 466 kts 155°
2026-05-06 14:03 12.66332 43.39212 34403 ft 466 kts 155°
2026-05-06 14:04 12.63397 43.40618 34176 ft 467 kts 155°
2026-05-06 14:04 12.60576 43.42264 33949 ft 467 kts 142°
2026-05-06 14:04 12.58214 43.44530 33718 ft 467 kts 128°
2026-05-06 14:04 12.56452 43.47320 33447 ft 467 kts 114°
2026-05-06 14:05 12.55386 43.50452 32938 ft 468 kts 102°
2026-05-06 14:05 12.55083 43.53778 31919 ft 473 kts 86°
2026-05-06 14:05 12.55554 43.57070 30966 ft 476 kts 78°
2026-05-06 14:05 12.56205 43.60408 30024 ft 480 kts 78°
2026-05-06 14:06 12.56848 43.63782 28830 ft 485 kts 79°
2026-05-06 14:06 12.57480 43.67181 27686 ft 487 kts 79°
2026-05-06 14:06 12.58105 43.70598 26527 ft 489 kts 79°
2026-05-06 14:06 12.58733 43.74023 25305 ft 491 kts 79°
2026-05-06 14:07 12.59364 43.77444 24126 ft 484 kts 79°
2026-05-06 14:07 12.59982 43.80782 22961 ft 471 kts 79°
2026-05-06 14:07 12.60586 43.84028 21816 ft 456 kts 79°
2026-05-06 14:07 12.61166 43.87151 20958 ft 438 kts 79°
2026-05-06 14:08 12.61723 43.90161 20095 ft 426 kts 79°
2026-05-06 14:08 12.62274 43.93137 19249 ft 423 kts 79°
2026-05-06 14:08 12.62819 43.96077 18425 ft 417 kts 79°
2026-05-06 14:08 12.63354 43.98972 17536 ft 410 kts 79°
2026-05-06 14:09 12.63882 44.01822 16717 ft 403 kts 79°
2026-05-06 14:09 12.64400 44.04617 15921 ft 396 kts 78°
2026-05-06 14:09 12.64914 44.07394 15119 ft 399 kts 78°
2026-05-06 14:09 12.65435 44.10156 14357 ft 400 kts 78°
2026-05-06 14:10 12.65973 44.12949 13623 ft 400 kts 78°
2026-05-06 14:10 12.66517 44.15742 12830 ft 399 kts 78°
2026-05-06 14:10 12.67060 44.18517 12119 ft 396 kts 78°
2026-05-06 14:10 12.67597 44.21273 11442 ft 392 kts 78°
2026-05-06 14:11 12.68119 44.23969 11144 ft 379 kts 78°
2026-05-06 14:11 12.68617 44.26560 10904 ft 363 kts 79°
2026-05-06 14:11 12.69094 44.29043 10668 ft 348 kts 79°
2026-05-06 14:11 12.69554 44.31432 10435 ft 336 kts 79°
2026-05-06 14:12 12.70000 44.33739 10208 ft 325 kts 79°
2026-05-06 14:12 12.70433 44.35982 9979 ft 315 kts 79°
2026-05-06 14:12 12.70845 44.38120 9852 ft 304 kts 79°
2026-05-06 14:12 12.71246 44.40201 9737 ft 292 kts 79°
2026-05-06 14:13 12.71632 44.42206 9619 ft 282 kts 79°
2026-05-06 14:13 12.72005 44.44148 9499 ft 276 kts 79°
2026-05-06 14:13 12.72376 44.46075 9366 ft 275 kts 79°
2026-05-06 14:13 12.72745 44.47996 9245 ft 275 kts 79°
2026-05-06 14:14 12.73113 44.49919 9121 ft 275 kts 79°
2026-05-06 14:14 12.73481 44.51836 8883 ft 275 kts 79°
2026-05-06 14:14 12.73848 44.53758 8534 ft 274 kts 79°
2026-05-06 14:14 12.74216 44.55673 8174 ft 274 kts 79°
2026-05-06 14:15 12.74583 44.57593 7807 ft 274 kts 79°
2026-05-06 14:15 12.74950 44.59511 7455 ft 275 kts 79°
2026-05-06 14:15 12.75194 44.60784 7212 ft 276 kts 79°
2026-05-06 14:15 12.75566 44.62716 6838 ft 277 kts 79°
2026-05-06 14:16 12.75940 44.64658 6467 ft 278 kts 80°
2026-05-06 14:16 12.76433 44.67231 6058 ft 276 kts 80°
2026-05-06 14:16 12.76680 44.68532 5839 ft 275 kts 80°
2026-05-06 14:16 12.77045 44.70460 5420 ft 276 kts 80°
2026-05-06 14:17 12.77525 44.72980 4799 ft 268 kts 80°
2026-05-06 14:17 12.77765 44.74241 4481 ft 266 kts 79°
2026-05-06 14:17 12.77984 44.76100 3998 ft 260 kts 92°
2026-05-06 14:17 12.77847 44.77930 3525 ft 255 kts 97°
2026-05-06 14:18 12.77714 44.79701 3104 ft 249 kts 86°
2026-05-06 14:18 12.78095 44.81364 2894 ft 233 kts 73°
2026-05-06 14:18 12.78524 44.82927 2574 ft 224 kts 77°
2026-05-06 14:18 12.78873 44.84430 2499 ft 212 kts 78°
2026-05-06 14:19 12.79192 44.85877 2501 ft 202 kts 78°
2026-05-06 14:19 12.79488 44.87205 2539 ft 184 kts 78°
2026-05-06 14:19 12.79768 44.88455 2504 ft 177 kts 78°
2026-05-06 14:19 12.80035 44.89674 2364 ft 174 kts 78°
2026-05-06 14:20 12.80298 44.90881 2154 ft 173 kts 79°
2026-05-06 14:20 12.80561 44.92082 1932 ft 172 kts 79°
2026-05-06 14:20 12.80829 44.93279 1690 ft 172 kts 80°
2026-05-06 14:20 12.81087 44.94453 1443 ft 165 kts 80°
2026-05-06 14:21 12.81335 44.95560 1256 ft 156 kts 78°
2026-05-06 14:21 12.81543 44.96309 1109 ft 154 kts 76°
2026-05-06 14:21 12.81764 44.97378 903 ft 151 kts 81°
2026-05-06 14:21 12.81975 44.98409 707 ft 145 kts 80°
2026-05-06 14:22 12.82194 44.99420 486 ft 143 kts 80°
2026-05-06 14:22 12.82405 45.00406 324 ft 140 kts 80°
2026-05-06 14:22 12.82613 45.01376 86 ft 139 kts 80°
2026-05-06 14:22 12.82807 45.02282 22 ft 113 kts 77°
2026-05-06 14:23 12.82942 45.02898 23 ft 64 kts 78°
2026-05-06 14:23 12.83019 45.03244 21 ft 46 kts 77°
2026-05-06 14:23 12.83086 45.03552 21 ft 40 kts 77°
2026-05-06 14:23 12.83136 45.03785 21 ft 24 kts 76°
2026-05-06 14:24 12.83130 45.03862 23 ft 8 kts 145°
2026-05-06 14:24 12.83060 45.03877 21 ft 12 kts 169°
2026-05-06 14:24 12.82971 45.03897 20 ft 14 kts 166°
2026-05-06 14:24 12.82868 45.03920 21 ft 12 kts 171°
2026-05-06 14:25 12.82786 45.03892 20 ft 14 kts 208°
2026-05-06 14:25 12.82721 45.03830 20 ft 13 kts 251°
2026-05-06 14:25 12.82700 45.03734 20 ft 9 kts 271°
2026-05-06 14:25 12.82744 45.03712 22 ft 8 kts
2026-05-06 14:26 12.82771 45.03762 20 ft 10 kts 79°
2026-05-06 14:26 12.82782 45.03803 22 ft 0 kts 72°